Flag for U.S.A. Weather past 2 weeks in Jackson, Wyoming, U.S.A.

Now
46 °F

Clear.


Feels Like: 44 °F
Forecast: 40 / 67 °F
Wind: 5 mph from East

Location: Jackson Hole

Current Time: Jun 2, 2015 at 11:57:32 PM

Latest Report: Jun 2, 2015 at 11:35 PM


Visibility: 10 mi

Pressure: 30.07 "Hg

Humidity: 76%

Dew point: 39 °F

Location of JacksonLocation

Historic Weather in Jackson — Graph

°F

Jackson temperature yesterday

Maximum temperature yesterday: 75 °F (at 1:51 PM)
Minimum temperature yesterday: 43 °F (at 11:35 PM)
Average temperature yesterday: 56 °F

Past Weeks' High & Low Weather Summary

 TemperatureHumidityPressure
High75 °F (Jun 1, 1:51 PM)100% (May 19, 5:58 PM)30.32 "Hg (May 19, 5:58 PM)
Low36 °F (May 24, 5:55 AM)29% (May 31, 6:55 PM)29.87 "Hg (May 22, 4:48 PM)
Average47 °F82%30.09 "Hg
* Reported May 18 10:15 PM — Jun 2 10:35 PM, Jackson, Weather by CustomWeather, © 2015

Note: Actual official high and low records may vary slightly from our data, if they occured in-between our weather recording intervals... More about our weather records

Advertising

Jackson weather history for previous 24 hours

 ConditionsComfort  
Time TempWeatherWind HumidityBarometerVisibility
10:35 PM
Tue, Jun 2
48 °FClear.8 mph71%30.07 "Hg10 mi
10:15 PM50 °FClear.7 mph67%30.07 "Hg10 mi
9:15 PM55 °FSunny.12 mph47%30.05 "Hg10 mi
8:55 PM55 °FSunny.10 mph51%30.05 "Hg10 mi
7:52 PM61 °FScattered clouds.8 mph42%N/A10 mi
6:53 PM64 °FScattered clouds.9 mph40%30.03 "Hg10 mi
5:57 PM64 °FScattered clouds.8 mph37%30.02 "Hg10 mi
4:51 PM66 °FPartly sunny.9 mph35%30.01 "Hg10 mi
3:51 PM66 °FPartly sunny.9 mph35%30.02 "Hg10 mi
2:51 PM59 °FBroken clouds.12 mph48%30.02 "Hg10 mi
1:51 PM61 °FLight rain. Broken clouds.5 mph45%30.04 "Hg10 mi
12:51 PM63 °FScattered clouds.7 mph56%30.05 "Hg10 mi
11:51 AM57 °FScattered showers. Scattered clouds.5 mph67%30.07 "Hg10 mi
10:51 AM54 °FPassing clouds.No wind77%30.08 "Hg10 mi
9:51 AM48 °FPartly sunny.No wind87%30.10 "Hg10 mi
8:47 AM46 °FPassing clouds.No wind93%30.11 "Hg10 mi
7:48 AM43 °FPassing clouds.No wind93%30.10 "Hg10 mi
6:51 AM37 °FPassing clouds.No wind100%30.10 "Hg10 mi
6:35 AM39 °FPassing clouds.No wind100%30.09 "Hg10 mi
6:15 AM39 °FPassing clouds.No wind100%30.09 "Hg10 mi
5:55 AM39 °FPassing clouds.No wind100%30.10 "Hg10 mi
5:35 AM37 °FPassing clouds.3 mph93%30.09 "Hg10 mi
5:15 AM39 °FPassing clouds.No wind100%30.08 "Hg10 mi
4:55 AM39 °FPartly cloudy.No wind100%30.08 "Hg1 mi
4:35 AM39 °FClear.No wind93%30.07 "Hg2 mi
4:15 AM37 °FClear.No wind93%30.07 "Hg10 mi
3:55 AM39 °FClear.No wind100%30.07 "Hg10 mi
3:35 AM39 °FPassing clouds.3 mph100%30.07 "Hg10 mi
3:15 AM39 °FPassing clouds.No wind100%30.06 "Hg10 mi
2:55 AM43 °FPassing clouds.No wind100%30.07 "Hg10 mi
2:35 AM39 °FPassing clouds.6 mph100%30.06 "Hg10 mi
2:15 AM39 °FPassing clouds.7 mph100%30.06 "Hg9 mi
1:55 AM39 °FPassing clouds.7 mph100%30.05 "Hg10 mi
1:35 AM41 °FClear.6 mph100%30.06 "Hg10 mi
1:15 AM41 °FClear.5 mph93%30.06 "Hg7 mi
12:55 AM43 °FClear.5 mph100%30.06 "Hg10 mi
12:35 AM43 °FClear.No wind100%30.06 "Hg10 mi
12:15 AM43 °FClear.3 mph100%30.06 "Hg10 mi
11:55 PM
Mon, Jun 1
43 °FClear.No wind100%30.06 "Hg10 mi
11:35 PM43 °FClear.5 mph100%30.07 "Hg10 mi
11:15 PM45 °FClear.No wind93%30.07 "Hg10 mi
Weather by CustomWeather, © 2015

See weather overviewHow to use our weather pages